PulseSat

PulseSat

MOLNIYA 3-31

Last updated on Dec. 9, 2018, 12:08 a.m. UTC

1 17328U 87008A   18341.84158155  .00000242  00000-0  00000+0 0  9995
2 17328  63.9783 262.2122 6805662 265.9721  20.3261  2.00662540230061
UTC
Height (km)
Latitude
Longitude
Inclination
Orbital Period

Next 30 passes for location: Hong Kong

Rise time Rise Azimuth (degrees) Set time Set Azimuth (degrees) Duration Max altitude (degrees)

No matching passes for this satellites

PulseSat

PulseSat is the new satellites software and hardware trackering solution by Pulsely.
Satellite Two Line Element Set source: US Air Force Space Command

Download PulseSat for iOS
© 2017 Pulsely Limited